Regional Weather Roundup
Issued by NWS Newport/Morehead, NC

Home | Current Version | Previous Version | Text Only | Print | Product List | Glossary On
Versions: 1 2 3 4 5 6 7 8 9 10 11 12 13 14 15 16 17 18 19 20 21 22 23 24 25 26 27 28 29 30 31 32 33 34 35 36 37 38 39 40 41 42 43 44 45 46 47 48 49 50
000
ASUS42 KMHX 241713
RWRMHX
WEATHER ROUNDUP FOR EASTERN NORTH CAROLINA
NATIONAL WEATHER SERVICE NEWPORT/MOREHEAD CITY NC
100 PM EDT SUN JUL 24 2016

NOTE: "FAIR" INDICATES FEW OR NO CLOUDS BELOW 12,000 FEET
WITH NO SIGNIFICANT WEATHER AND/OR OBSTRUCTIONS TO VISIBILITY

NCZ015>017-031-032-045>047-102-103-241800-
NORTH COAST

CITY           SKY/WX    TMP DP  RH WIND       PRES   REMARKS
EDENTON        SUNNY     92  73  53 SW7       30.02S HX 101
ELIZABETH CITY SUNNY     93  74  53 SW12      30.01R HX 103
KITTY HAWK     SUNNY     96  75  51 SW5       30.01S HX 108
MANTEO           N/A     89  80  75 S7        30.02S HX 106

$$

NCZ045>047-081-094-103-104-241800-
CENTRAL COAST

CITY           SKY/WX    TMP DP  RH WIND       PRES   REMARKS
FRISCO         SUNNY     88  79  74 VRB6      30.04S HX 103

$$

NCZ095-097-098-100-101-241800-
SOUTHERN COAST

CITY           SKY/WX    TMP DP  RH WIND       PRES   REMARKS
BEAUFORT       MOSUNNY   88  77  69 SW14      30.04S HX 100
CEDAR ISLAND   NOT AVBL
JACKSONVILLE   MOSUNNY   92  76  59 VRB3      30.03S HX 104
PINEY ISLAND   NOT AVBL
WILMINGTON     PTSUNNY   90  76  63 VRB3      30.03F HX 101


$$

NCZ011>013-027>030-043-044-078>080-089-090>093-098-241800-
COASTAL PLAIN

CITY           SKY/WX    TMP DP  RH WIND       PRES   REMARKS
AHOSKIE        SUNNY     91  77  63 S5        30.01S HX 103
CLINTON        MOSUNNY   92  76  59 SW5       30.04S HX 105
ELIZABETHTOWN  SUNNY     91  76  62 S5        30.04S HX 103
GOLDSBORO      MOSUNNY   93  74  55 VRB6      30.02S HX 103
GREENVILLE     SUNNY     91  79  66 SW6       30.04F HX 107
HAVELOCK       MOSUNNY   92  77  61 SW9       30.04S HX 105
KENANSVILLE    NOT AVBL
KINSTON        MOSUNNY   93  73  52 SW6       30.04S HX 102
NEW BERN       MOSUNNY   90  76  63 SW5       30.04S HX 101
RICHLANDS      PTSUNNY   93  78  61 SW6       30.04F HX 108
ROCKY MOUNT    SUNNY     92  76  59 W6        30.03S HX 104
WASHINGTON     MOSUNNY   91  77  62 SW9       30.03S HX 104
WHITEVILLE     SUNNY     90  77  66 CALM      30.03F HX 103

$$

AMZ130-135-150-152-154-156-158-170-250-252-270-ANZ085-086-088-633-658-670-241800-
MARINE OBSERVATIONS

STATION/POSITION TIME  TEMP    WIND        PRES    WAVE   SWELL
                       AIR SEA DIR/SP/G            HT/PER HT/PER
                 (UTC) (F)     (DEG/KT/KT) (MB)    (FT/S) (FT/S)
CHESAPEAKE LIGHT NOT AVBL
64 E VA BEACH    1650   81 80  230/ 10/ 12 1016.1    3/ 5   2/ 5
DUCK             1600   85 60  230/  8/ 12 1015.6
2 E DUCK         1611      70                N/A     1/ 8
OREGON INLET     1612   84 84  190/ 11/ 12 1016.6
13E OREGON INLT  1700      83                N/A     2/ 9   2/ 9
HATTERAS CG      1600   86 82  220/  8/ 12 1016.9
DIAMOND BUOY     1650   84 86  240/ 10/ 12 1017.5    2/ 9   2/ 9
CAPE LOOKOUT     1700   88     230/  9/ 11 1017.2
BEAUFORT LAB     1600   87 82  220/  7/ 10 1016.7
30 SE NEW RVR IN 1608   85 85  230/  8/ 12 1017.6
30 SE NEW RVR IN 1625      85                N/A     2/ 8
27 SE WRIGHTSVLE 1608   85 85  220/ 10/ 12 1017.9
5 SE WRIGHTSVLE  1608   84 84  220/ 14/ 17 1018.4
225 S CAPE HAT   1650   83 87  130/  4/  6 1018.8    2/ 8   2/ 8
41 SE CHARLESTON 1650   85 86  210/ 10/ 10 1017.6    3/ 9   2/ 9

$$




USA.gov is the U.S. government's official web portal to all federal, state and local government web resources and services.